Regional Weather Roundup
Issued by NWS State College, PA

Home | Current Version | Previous Version | Text Only | Print | Product List | Glossary Off
Versions: 1 2 3 4 5 6 7 8 9 10 11 12 13 14 15 16 17 18 19 20 21 22 23 24 25 26 27 28 29 30 31 32 33 34 35 36 37 38 39 40 41 42 43 44 45 46 47 48 49 50

000
ASUS41 KCTP 011603
RWRCTP

REGIONAL WEATHER ROUNDUP
NATIONAL WEATHER SERVICE STATE COLLEGE PA
1200 PM EDT TUE SEP 01 2015

Note: "fair" indicates few or no clouds below 12,000 feet with no
significant weather and/or obstructions to visibility.

* = STATION THAT DOES NOT REPORT PRECIPITATION /E.G. RAIN...SNOW...ETC/
    THUNDER OR FOG.

PAZ002>004-007>009-013>016-020>023-029>032-011700-
WESTERN PENNSYLVANIA

CITY           SKY/WX    TMP DP  RH WIND       PRES   REMARKS
ERIE           SUNNY     81  67  62 W7        30.11S
MEADVILLE      SUNNY     80  66  62 VRB5      30.15F
FRANKLIN*      MOSUNNY   79  68  69 SW7       30.17F
NEW CASTLE     NOT AVBL
BEAVER COUNTY  MOSUNNY   84  68  58 CALM      30.15F
BUTLER*        MOSUNNY   82  70  65 W6        30.16F
PITTSBURGH INT MOSUNNY   84  67  56 VRB6      30.14F
PITTSBURGH     MOSUNNY   81  62  52 N5        30.14F
INDIANA*       MOSUNNY   81  68  65 NW5G15    30.18F
LATROBE        MOSUNNY   82  68  61 CALM      30.15F
WASHINGTON CO* MOSUNNY   82  66  57 CALM      30.16F
$$

PAZ004>006-010>012-017>019-024>028-033>037-041-042-045-046-049>053-011700-
CENTRAL PENNSYLVANIA

CITY           SKY/WX    TMP DP  RH WIND       PRES   REMARKS
BRADFORD       SUNNY     77  63  61 NW7       30.17F
DUBOIS         PTSUNNY   79  65  62 W6        30.16F HAZE
CLEARFIELD     MOSUNNY   80  65  59 N7        30.15F
JOHNSTOWN      MOSUNNY   77  64  64 MISG      30.19F
ALTOONA        MOSUNNY   83  65  54 NW9G17    30.15F
STATE COLLEGE  MOSUNNY   79  64  61 CALM      30.14F
WILLIAMSPORT   SUNNY     79  65  62 SW6       30.08F
SELINSGROVE    MOSUNNY   82  68  62 VRB5      30.10F
FT INDIANTOWN  MOSUNNY   83  63  49 N8        30.08F
CAPITAL CITY   SUNNY     86  60  41 NW8       30.08F
HARRISBURG     SUNNY     87  60  40 NW10      30.07F
YORK             N/A    N/A N/A N/A MISG      30.08F
$$

PAZ038>040-043-044-047-048-054-055-060>062-067>071-011700-
EASTERN PENNSYLVANIA

CITY           SKY/WX    TMP DP  RH WIND       PRES   REMARKS
SCRANTON       MOSUNNY   79  66  64 VRB3      30.10F
MOUNT POCONO   PTSUNNY   77  62  59 VRB7      30.14F
ALLENTOWN      MOSUNNY   85  65  51 N6        30.08F
QUAKERTOWN*    MOSUNNY   82  66  57 NE3       30.09F
READING        MOSUNNY   84  65  52 VRB3      30.06F
LANCASTER      SUNNY     85  66  53 W5        30.07F
COATESVILLE    SUNNY     84  66  54 NW8       30.09F
POTTSTOWN      PTSUNNY   83  68  60 CALM      30.08F
BLUE BELL      MOSUNNY   86  70  58 CALM      30.06F
DOYLESTOWN     MOSUNNY   84  66  54 N7        30.07F
WILLOW GROVE   NOT AVBL
NORTH PHILA    SUNNY     88  64  44 CALM      30.07F
PHILADELPHIA   SUNNY     89  65  44 E6        30.05F
$$



USA.gov is the U.S. government's official web portal to all federal, state and local government web resources and services.